Regional Weather Roundup
Issued by NWS

Home | Current Version | Previous Version | Text Only | Print | Product List | Glossary On
Versions: 1 2 3 4 5 6 7 8 9 10 11 12 13 14 15 16 17 18 19 20 21 22 23 24 25 26 27
000
ASPQ40 PGUM 280712
RWRPQ
WEATHER ROUNDUP FOR THE MARIANAS AND MICRONESIA
NATIONAL WEATHER SERVICE TIYAN GU
500 PM CHST TUE MAR 28 2017

GUZ001>004-280800-
MARIANA ISLANDS-

CITY           SKY/WX    TMP DP  RH WIND       PRES   REMARKS
GUAM AIRPORT   MOSUNNY   84  72  65 NE18      29.89R
ANDERSEN AFB   PTSUNNY   82  72  69 NE17      29.91R
ROTA AIRPORT   PTSUNNY   81  73  78 NE14G21   29.90F
TINIAN AP      PTSUNNY   82  75  78 NE18      29.90R
SAIPAN AP      PTSUNNY   82  75  78 NE18      29.91R

$$

PMZ161-280800-
REPUBLIC OF PALAU-

CITY           SKY/WX    TMP DP  RH WIND       PRES   REMARKS
KOROR AP       PTSUNNY   86  75  70 NE10G16   29.81S HX  95
KOROR WSO      CLOUDY    90  77  66 E10       29.82S HX 102

$$

PMZ171>174-280800-
FEDERATED STATES OF MICRONESIA-

CITY           SKY/WX    TMP DP  RH WIND       PRES   REMARKS
YAP AIRPORT    PTSUNNY   82  75  78 NE9       29.84R
CHUUK AP       CLOUDY    82  77  83 VRB6      29.79R HX  91
POHNPEI AP     NOT AVBL
POHNPEI WSO    NOT AVBL
KOSRAE AP      NOT AVBL

$$

PMZ181-280800-
REPUBLIC OF THE MARSHALL ISLANDS-

CITY           SKY/WX    TMP DP  RH WIND       PRES   REMARKS
KWAJALEIN AP   PTCLDY    84  72  65 E18       29.82R
MAJURO AP      NOT AVBL
MAJURO WSO     PTCLDY    82  73  74 NE10      29.80R

$$





USA.gov is the U.S. government's official web portal to all federal, state and local government web resources and services.